Flag for Uruguay Weather past 2 weeks in Montevideo, Uruguay

Now
63 °F

Clear.


Feels Like: 63 °F
Forecast: 51 / 67 °F
Wind: 12 mph from Southeast

Location: Carrasco

Current Time: Aug 31, 2015 at 4:19:18 AM

Latest Report: Aug 31, 2015 at 4:00 AM


Visibility: 10 mi

Pressure: 29.83 "Hg

Humidity: 73%

Dew point: 54 °F

Location of MontevideoLocation

Historic Weather in Montevideo — Graph

°F

Montevideo temperature yesterday

Maximum temperature yesterday: 75 °F (at 12:00 PM)
Minimum temperature yesterday: 54 °F (at 4:00 AM)
Average temperature yesterday: 63 °F

Past Weeks' High & Low Weather Summary

 TemperatureHumidityPressure
High77 °F (Aug 29, 1:00 PM)100% (Aug 17, 8:00 AM)30.33 "Hg (Aug 17, 8:00 AM)
Low43 °F (Aug 16, 4:00 AM)33% (Aug 28, 3:00 PM)29.68 "Hg (Aug 22, 3:00 PM)
Average57 °F76%30.00 "Hg
* Reported Aug 16 3:00 AM — Aug 31 3:00 AM, Montevideo, Weather by CustomWeather, © 2015

Note: Actual official high and low records may vary slightly from our data, if they occured in-between our weather recording intervals... More about our weather records

Advertising

Montevideo weather history for previous 24 hours

 ConditionsComfort  
Time TempWeatherWind HumidityBarometerVisibility
3:00 AM
Mon, Aug 31
61 °FClear.15 mph77%29.89 "Hg10 mi
2:00 AM61 °FClear.15 mph77%29.89 "Hg10 mi
1:00 AM61 °FClear.13 mph77%29.92 "Hg10 mi
12:00 AM63 °FClear.6 mph73%29.92 "Hg10 mi
11:00 PM
Sun, Aug 30
61 °FClear.6 mph77%29.92 "Hg10 mi
10:00 PM63 °FClear.9 mph73%29.92 "Hg10 mi
9:00 PM63 °FClear.9 mph73%29.92 "Hg10 mi
8:00 PM63 °FClear.9 mph73%29.92 "Hg10 mi
7:00 PM63 °FClear.13 mph73%29.89 "Hg10 mi
6:00 PM63 °FClear.14 mph73%29.89 "Hg10 mi
5:00 PM63 °FSunny.14 mph68%29.92 "Hg10 mi
4:00 PM64 °FSunny.13 mph64%29.92 "Hg10 mi
3:00 PM68 °FSunny.13 mph56%29.92 "Hg10 mi
2:00 PM72 °FSunny.10 mph44%29.95 "Hg10 mi
1:00 PM73 °FSunny.7 mph47%29.95 "Hg10 mi
12:00 PM75 °FSunny.9 mph47%29.98 "Hg10 mi
11:00 AM73 °FSunny.9 mph44%29.98 "Hg10 mi
10:00 AM68 °FSunny.8 mph53%29.98 "Hg10 mi
9:00 AM64 °FSunny.5 mph52%29.98 "Hg10 mi
8:00 AM61 °FSunny.No wind55%29.95 "Hg10 mi
7:00 AM61 °FSunny.3 mph55%29.92 "Hg10 mi
6:00 AM61 °FClear.5 mph52%29.92 "Hg10 mi
5:00 AM55 °FClear.No wind82%29.89 "Hg10 mi
4:00 AM54 °FClear.No wind82%29.89 "Hg10 mi
Weather by CustomWeather, © 2015

See weather overviewHow to use our weather pages